Regional Weather Roundup
Issued by NWS

Home | Current Version | Previous Version | Graphics & Text | Print | Product List | Glossary On
Versions: 1 2 3 4 5 6 7 8 9 10 11 12 13 14 15 16 17 18 19 20 21 22 23 24 25 26 27 28 29 30 31 32 33 34 35 36 37 38 39 40 41 42 43 44 45 46 47 48 49 50
201
ASUS45 KCYS 300210
RWRWY

WYOMING REGIONAL WEATHER ROUNDUP
NATIONAL WEATHER SERVICE CHEYENNE WY
800 PM MDT MON MAY 29 2017

NOTE:  "FAIR" INDICATES FEW OR NO CLOUDS BELOW 12,000 FEET
WITH NO SIGNIFICANT WEATHER AND/OR OBSTRUCTIONS TO VISIBILITY.

WYZ001-300300-
YELLOWSTONE NATIONAL PARK

CITY           SKY/WX    TMP DP  RH WIND       PRES   REMARKS
LK YELLOWSTONE   N/A     53  28  38 CALM      30.30R
W YELLOWSTONE  NOT AVBL

$$
WYZ002>013-054>058-071-098>099-300300-
NORTHERN WYOMING

CITY           SKY/WX    TMP DP  RH WIND       PRES   REMARKS
JACKSON        CLEAR     66  27  22 N6        30.20S
CODY           FAIR      67  31  26 N7        30.19R
GREYBULL       FAIR      72  27  18 NW10      30.10S
WORLAND        FAIR      67  37  33 NE5       30.12S
SHERIDAN       FAIR      60  44  55 W6        30.15S
BUFFALO        FAIR      59  35  40 VRB5      30.19S
GILLETTE       FAIR      57  37  47 NW8       30.15S
HULETT         FAIR      59  30  33 N6        30.15F
NEWCASTLE      FAIR      61  23  23 NW10G16   30.15R

$$
WYZ014>020-022>026-101>103-300300-
CENTRAL WYOMING

CITY           SKY/WX    TMP DP  RH WIND       PRES   REMARKS
BIG PINEY      FAIR      62  37  39 SW12      30.23R
PINEDALE       FAIR      63  30  29 SW3       30.24S
DUBOIS         FAIR      55  34  44 SE13G18   30.26R
LANDER         FAIR      62  43  49 NW5       30.19R
RIVERTON       FAIR      62  38  40 NE6       30.20R
CASPER         FAIR      58  43  57 NE8       30.20R
DOUGLAS        FAIR      61  37  41 N8        30.18S

$$
WYZ021-027>030-104>119-300300-
SOUTHERN WYOMING

CITY           SKY/WX    TMP DP  RH WIND       PRES   REMARKS
EVANSTON       FAIR      67  29  24 N6        30.21S
KEMMERER         N/A     61  30  31 N3        30.24S
FORT BRIDGER   FAIR      67  28  23 N6        30.24S
ROCK SPRINGS   MOCLDY    62  34  35 E13       30.21R
DIXON            N/A     63  36  37 E8        30.24R
RAWLINS        FAIR      58  42  55 CALM      30.25R
SARATOGA       FAIR      59  32  36 NW6       30.26R
LARAMIE        CLOUDY    54  37  52 W6        30.26R
CHEYENNE       FAIR      56  39  53 E5        30.23R
TORRINGTON     FAIR      63  36  36 N12       30.13R
PINE BLUFFS    FAIR      57  43  58 SW5       30.20R

$$




USA.gov is the U.S. government's official web portal to all federal, state and local government web resources and services.